Location: Battersea Observatory
(44.4318°N, 76.3841°W)
Time: 15:15:01
(UTC-05:00)

X-37B - Pass Details

Date: 06 December 2021
Orbit: 334 x 337 km, 45.0° (Epoch: 11 January)

Event Time Altitude Azimuth Distance (km) Brightness Sun altitude
Rises 17:58:58 0° 218° (SW) 2,091 5.2 -16.0°
Reaches altitude 10° 18:01:16 10° 199° (SSW) 1,259 3.6 -16.4°
Enters shadow 18:03:20 20° 152° (SSE) 856 2.2 -16.7°
